[keps] orb12124.amsat
Ray Hoad
ray.hoad at mypbmail.com
Thu May 3 21:42:40 PDT 2012
SB KEPS @ AMSAT $ORB12124.O
Orbital Elements 12124.OSCAR
HR AMSAT ORBITAL ELEMENTS FOR OSCAR SATELLITES
FROM WA5QGD FORT WORTH,TX May 3, 2012
Send SUBSCRIBE KEPS/UNSUBSCRIBE KEPS to majordomo at amsat.org only
BID: ORB12124.O
TO ALL RADIO AMATEURS BT
Satellite: AO-07
Catalog number: 07530
Epoch time: 12123.57638698
Element set: 0372
Inclination: 101.4013 deg
RA of node: 122.5493 deg
Eccentricity: 0.0012071
Arg of perigee: 012.8884 deg
Mean anomaly: 347.2492 deg
Mean motion: 12.53589002 rev/day
Decay rate: -2.7e-07 rev/day^2
Epoch rev: 71433
Checksum: 278
Satellite: FO-29
Catalog number: 24278
Epoch time: 12123.85437848
Element set: 0842
Inclination: 098.5818 deg
RA of node: 230.4468 deg
Eccentricity: 0.0351021
Arg of perigee: 146.5653 deg
Mean anomaly: 215.8193 deg
Mean motion: 13.52982018 rev/day
Decay rate: -7.0e-08 rev/day^2
Epoch rev: 77582
Checksum: 329
Satellite: SO-33
Catalog number: 25509
Epoch time: 12124.69081246
Element set: 223
Inclination: 031.4332 deg
RA of node: 225.4989 deg
Eccentricity: 0.0352356
Arg of perigee: 174.0112 deg
Mean anomaly: 186.4876 deg
Mean motion: 14.28721209 rev/day
Decay rate: 4.47e-06 rev/day^2
Epoch rev: 70628
Checksum: 299
Satellite: RS-22
Catalog number: 27939
Epoch time: 12124.70886769
Element set: 321
Inclination: 097.8166 deg
RA of node: 327.8014 deg
Eccentricity: 0.0014318
Arg of perigee: 049.2108 deg
Mean anomaly: 311.0338 deg
Mean motion: 14.63991999 rev/day
Decay rate: 4.13e-06 rev/day^2
Epoch rev: 45937
Checksum: 329
Satellite: VO-52
Catalog number: 28650
Epoch time: 12123.57624796
Element set: 0092
Inclination: 097.6018 deg
RA of node: 156.7565 deg
Eccentricity: 0.0026284
Arg of perigee: 188.2184 deg
Mean anomaly: 171.8629 deg
Mean motion: 14.82863615 rev/day
Decay rate: 7.72e-06 rev/day^2
Epoch rev: 37821
Checksum: 339
Satellite: HO-68
Catalog number: 36122
Epoch time: 12124.82712644
Element set: 430
Inclination: 100.3651 deg
RA of node: 185.0611 deg
Eccentricity: 0.0007309
Arg of perigee: 208.1779 deg
Mean anomaly: 151.8939 deg
Mean motion: 13.16294939 rev/day
Decay rate: -4.4e-07 rev/day^2
Epoch rev: 11455
Checksum: 289
/EX
SB KEPS @ AMSAT $ORB12124.D
Orbital Elements 12124.MICROS
HR AMSAT ORBITAL ELEMENTS FOR THE MICROSATS
FROM WA5QGD FORT WORTH,TX May 3, 2012
Send SUBSCRIBE KEPS/UNSUBSCRIBE KEPS to majordomo at amsat.org only
BID: ORB12124.D
TO ALL RADIO AMATEURS BT
Satellite: UO-11
Catalog number: 14781
Epoch time: 12123.76877473
Element set: 0866
Inclination: 097.9566 deg
RA of node: 183.6784 deg
Eccentricity: 0.0008949
Arg of perigee: 173.4305 deg
Mean anomaly: 186.7024 deg
Mean motion: 14.80406638 rev/day
Decay rate: 4.30e-06 rev/day^2
Epoch rev: 51321
Checksum: 330
Satellite: AO-16
Catalog number: 20439
Epoch time: 12124.85970168
Element set: 457
Inclination: 098.4265 deg
RA of node: 069.4829 deg
Eccentricity: 0.0010231
Arg of perigee: 294.4805 deg
Mean anomaly: 065.5311 deg
Mean motion: 14.32045133 rev/day
Decay rate: 1.81e-06 rev/day^2
Epoch rev: 16365
Checksum: 294
Satellite: LO-19
Catalog number: 20442
Epoch time: 12123.98125887
Element set: 0396
Inclination: 098.3920 deg
RA of node: 071.7930 deg
Eccentricity: 0.0011023
Arg of perigee: 286.8798 deg
Mean anomaly: 073.1178 deg
Mean motion: 14.32263575 rev/day
Decay rate: 1.56e-06 rev/day^2
Epoch rev: 16371
Checksum: 315
Satellite: AO-27
Catalog number: 22825
Epoch time: 12123.88821644
Element set: 93
Inclination: 098.5695 deg
RA of node: 067.4146 deg
Eccentricity: 0.0009232
Arg of perigee: 055.4095 deg
Mean anomaly: 304.7956 deg
Mean motion: 14.29452718 rev/day
Decay rate: 1.29e-06 rev/day^2
Epoch rev: 97000
Checksum: 319
Satellite: IO-26
Catalog number: 22826
Epoch time: 12123.89775932
Element set: 843
Inclination: 098.5661 deg
RA of node: 067.8066 deg
Eccentricity: 0.0009862
Arg of perigee: 049.5091 deg
Mean anomaly: 310.6945 deg
Mean motion: 14.29726005 rev/day
Decay rate: 1.84e-06 rev/day^2
Epoch rev: 97013
Checksum: 330
Satellite: GO-32
Catalog number: 25397
Epoch time: 12123.49131403
Element set: 0767
Inclination: 098.3595 deg
RA of node: 104.4584 deg
Eccentricity: 0.0002171
Arg of perigee: 069.1963 deg
Mean anomaly: 290.9445 deg
Mean motion: 14.23271170 rev/day
Decay rate: 5.8e-07 rev/day^2
Epoch rev: 71752
Checksum: 302
Satellite: NO-44
Catalog number: 26931
Epoch time: 12123.78286571
Element set: 30
Inclination: 067.0518 deg
RA of node: 237.3593 deg
Eccentricity: 0.0007330
Arg of perigee: 270.5889 deg
Mean anomaly: 089.4377 deg
Mean motion: 14.29788357 rev/day
Decay rate: -1.02e-06 rev/day^2
Epoch rev: 55275
Checksum: 326
Satellite: SO-50
Catalog number: 27607
Epoch time: 12123.86636391
Element set: 0752
Inclination: 064.5577 deg
RA of node: 072.7594 deg
Eccentricity: 0.0084403
Arg of perigee: 257.4206 deg
Mean anomaly: 101.7451 deg
Mean motion: 14.72339778 rev/day
Decay rate: 6.45e-06 rev/day^2
Epoch rev: 50329
Checksum: 319
Satellite: CO-55
Catalog number: 27844
Epoch time: 12123.57651556
Element set: 364
Inclination: 098.7031 deg
RA of node: 132.6178 deg
Eccentricity: 0.0010119
Arg of perigee: 359.5348 deg
Mean anomaly: 000.5809 deg
Mean motion: 14.21005118 rev/day
Decay rate: 2.95e-06 rev/day^2
Epoch rev: 45841
Checksum: 295
Satellite: CO-57
Catalog number: 27848
Epoch time: 12124.55816570
Element set: 316
Inclination: 098.7111 deg
RA of node: 132.8984 deg
Eccentricity: 0.0010125
Arg of perigee: 002.7918 deg
Mean anomaly: 357.3325 deg
Mean motion: 14.20759572 rev/day
Decay rate: 2.52e-06 rev/day^2
Epoch rev: 45849
Checksum: 315
Satellite: AO-51
Catalog number: 28375
Epoch time: 12123.87502217
Element set: 255
Inclination: 098.1432 deg
RA of node: 091.2703 deg
Eccentricity: 0.0082937
Arg of perigee: 177.7122 deg
Mean anomaly: 182.4478 deg
Mean motion: 14.40933001 rev/day
Decay rate: 1.67e-06 rev/day^2
Epoch rev: 41224
Checksum: 285
Satellite: CP3
Catalog number: 31129
Epoch time: 12124.59770282
Element set: 156
Inclination: 097.8840 deg
RA of node: 134.9996 deg
Eccentricity: 0.0099949
Arg of perigee: 262.0652 deg
Mean anomaly: 096.9155 deg
Mean motion: 14.53020717 rev/day
Decay rate: 4.90e-06 rev/day^2
Epoch rev: 26750
Checksum: 328
Satellite: CO-65
Catalog number: 32785
Epoch time: 12123.63138628
Element set: 0297
Inclination: 097.8045 deg
RA of node: 185.7545 deg
Eccentricity: 0.0013999
Arg of perigee: 207.6395 deg
Mean anomaly: 152.4029 deg
Mean motion: 14.82878543 rev/day
Decay rate: 1.088e-05 rev/day^2
Epoch rev: 21701
Checksum: 341
Satellite: PRISM
Catalog number: 33493
Epoch time: 12124.68546923
Element set: 663
Inclination: 098.1646 deg
RA of node: 264.2126 deg
Eccentricity: 0.0020178
Arg of perigee: 082.3366 deg
Mean anomaly: 278.0104 deg
Mean motion: 14.83676822 rev/day
Decay rate: 3.086e-05 rev/day^2
Epoch rev: 17715
Checksum: 308
Satellite: SOHLA-1
Catalog number: 33496
Epoch time: 12124.85911462
Element set: 717
Inclination: 098.1003 deg
RA of node: 236.8999 deg
Eccentricity: 0.0006636
Arg of perigee: 173.8339 deg
Mean anomaly: 186.2948 deg
Mean motion: 14.69938561 rev/day
Decay rate: 2.50e-06 rev/day^2
Epoch rev: 17573
Checksum: 339
Satellite: SO-67
Catalog number: 35870
Epoch time: 12124.92081140
Element set: 922
Inclination: 097.2371 deg
RA of node: 162.2263 deg
Eccentricity: 0.0001984
Arg of perigee: 017.5786 deg
Mean anomaly: 099.7352 deg
Mean motion: 15.23458112 rev/day
Decay rate: 4.020e-05 rev/day^2
Epoch rev: 14587
Checksum: 298
Satellite: TISAT-1
Catalog number: 36799
Epoch time: 12124.77584828
Element set: 939
Inclination: 098.0632 deg
RA of node: 200.7856 deg
Eccentricity: 0.0013984
Arg of perigee: 320.8460 deg
Mean anomaly: 039.1687 deg
Mean motion: 14.81806854 rev/day
Decay rate: 1.832e-05 rev/day^2
Epoch rev: 9791
Checksum: 347
Satellite: STUDSAT
Catalog number: 36801
Epoch time: 12123.83166135
Element set: 0395
Inclination: 098.0697 deg
RA of node: 200.3587 deg
Eccentricity: 0.0012007
Arg of perigee: 308.8248 deg
Mean anomaly: 051.1888 deg
Mean motion: 14.83885891 rev/day
Decay rate: 4.768e-05 rev/day^2
Epoch rev: 09779
Checksum: 335
Satellite: FO-69
Catalog number: 37227
Epoch time: 12124.33969264
Element set: 0172
Inclination: 071.9699 deg
RA of node: 050.9175 deg
Eccentricity: 0.0015628
Arg of perigee: 040.3476 deg
Mean anomaly: 319.8841 deg
Mean motion: 14.77031316 rev/day
Decay rate: 6.25e-06 rev/day^2
Epoch rev: 02947
Checksum: 324
Satellite: FO-70
Catalog number: 37380
Epoch time: 12124.33772588
Element set: 0174
Inclination: 071.9731 deg
RA of node: 051.4244 deg
Eccentricity: 0.0016246
Arg of perigee: 037.3123 deg
Mean anomaly: 322.9161 deg
Mean motion: 14.76785017 rev/day
Decay rate: 6.59e-06 rev/day^2
Epoch rev: 02936
Checksum: 299
Satellite: ALMASAT-1
Catalog number: 38078
Epoch time: 12124.80795957
Element set: 177
Inclination: 069.4953 deg
RA of node: 057.6968 deg
Eccentricity: 0.0764395
Arg of perigee: 304.0942 deg
Mean anomaly: 048.9780 deg
Mean motion: 14.08040818 rev/day
Decay rate: 2.0675e-04 rev/day^2
Epoch rev: 1130
Checksum: 338
Satellite: XATCOBEO
Catalog number: 38082
Epoch time: 12124.86158867
Element set: 209
Inclination: 069.4917 deg
RA of node: 056.7211 deg
Eccentricity: 0.0749530
Arg of perigee: 303.5789 deg
Mean anomaly: 049.5821 deg
Mean motion: 14.13417813 rev/day
Decay rate: 4.7289e-04 rev/day^2
Epoch rev: 1132
Checksum: 318
/EX
SB KEPS @ AMSAT $ORB12124.W
Orbital Elements 12124.WEATHER
HR AMSAT ORBITAL ELEMENTS FOR WEATHER SATELLITES
FROM WA5QGD FORT WORTH,TX May 3, 2012
Send SUBSCRIBE KEPS/UNSUBSCRIBE KEPS to majordomo at amsat.org only
BID: ORB12124.W
TO ALL RADIO AMATEURS BT
Satellite: NOAA-10
Catalog number: 16969
Epoch time: 12123.95229286
Element set: 0915
Inclination: 098.5854 deg
RA of node: 153.8018 deg
Eccentricity: 0.0012564
Arg of perigee: 011.3446 deg
Mean anomaly: 348.8016 deg
Mean motion: 14.27546391 rev/day
Decay rate: 1.37e-06 rev/day^2
Epoch rev: 33341
Checksum: 308
